W0GEN-13 Weather Reports


Display with metric or nautical units.
time (UTC)temp
F
wind
direction
speed
MPH
gust
MPH
rain 1hr
in
rain 24hr
in
rain mn
in
humidity
%
barometer
mb
20190420221016 72 210 8.0 15.0 0.00 0.00 0.00 34 1007.7
20190420220516 72 212 9.0 12.0 0.00 0.00 0.00 34 1007.7
20190420220016 72 200 9.0 13.0 0.00 0.00 0.00 34 1007.8
20190420215516 72 184 10.0 13.0 0.00 0.00 0.00 32 1007.8
20190420215016 72 168 8.0 14.0 0.00 0.00 0.00 35 1007.8
20190420214516 72 196 7.0 14.0 0.00 0.00 0.00 34 1007.9
20190420214016 71 153 3.0 18.0 0.00 0.00 0.00 34 1007.9
20190420213516 71 176 12.0 18.0 0.00 0.00 0.00 35 1008.0
20190420213016 72 187 7.0 17.0 0.00 0.00 0.00 33 1008.1
20190420212516 72 171 8.0 14.0 0.00 0.00 0.00 33 1008.2
20190420212016 72 190 3.0 14.0 0.00 0.00 0.00 34 1008.2
20190420211516 71 203 7.0 12.0 0.00 0.00 0.00 32 1008.2
20190420211016 71 215 5.0 15.0 0.00 0.00 0.00 33 1008.3
20190420210516 71 206 7.0 15.0 0.00 0.00 0.00 33 1008.3
20190420210016 71 185 7.0 15.0 0.00 0.00 0.00 33 1008.5
20190420205516 71 229 8.0 15.0 0.00 0.00 0.00 33 1008.5
20190420205016 71 190 5.0 15.0 0.00 0.00 0.00 33 1008.5
20190420204516 71 183 14.0 15.0 0.00 0.00 0.00 34 1008.6
20190420204016 71 211 9.0 14.0 0.00 0.00 0.00 33 1008.7
20190420203516 71 180 7.0 15.0 0.00 0.00 0.00 36 1008.7
20190420203016 71 162 5.0 15.0 0.00 0.00 0.00 32 1008.8
20190420202516 71 213 7.0 15.0 0.00 0.00 0.00 34 1008.9
20190420202016 71 212 10.0 15.0 0.00 0.00 0.00 34 1009.0
20190420201516 71 90 0.0 10.0 0.00 0.00 0.00 31 1009.0
20190420201016 71 153 2.0 10.0 0.00 0.00 0.00 31 1009.1
20190420200516 71 228 5.0 10.0 0.00 0.00 0.00 33 1009.2
20190420200016 70 186 8.0 15.0 0.00 0.00 0.00 31 1009.3
20190420195516 71 204 8.0 15.0 0.00 0.00 0.00 36 1009.5
20190420195016 71 144 3.0 12.0 0.00 0.00 0.00 34 1009.5
20190420194516 70 194 5.0 12.0 0.00 0.00 0.00 34 1009.5
20190420194016 70 188 8.0 10.0 0.00 0.00 0.00 32 1009.6
20190420193516 70 167 8.0 10.0 0.00 0.00 0.00 32 1009.6
20190420193016 70 207 7.0 10.0 0.00 0.00 0.00 35 1009.7
20190420192516 69 140 2.0 10.0 0.00 0.00 0.00 32 1009.7
20190420192016 70 209 7.0 8.0 0.00 0.00 0.00 33 1009.8
20190420191516 69 148 5.0 10.0 0.00 0.00 0.00 33 1009.8
20190420191016 69 211 7.0 12.0 0.00 0.00 0.00 34 1009.8
20190420190516 69 250 6.0 12.0 0.00 0.00 0.00 33 1009.8
20190420190016 69 196 4.0 16.0 0.00 0.00 0.00 33 1009.8
20190420185516 69 137 7.0 16.0 0.00 0.00 0.00 37 1010.0
20190420185016 68 136 2.0 9.0 0.00 0.00 0.00 35 1009.9
20190420184516 69 196 7.0 9.0 0.00 0.00 0.00 34 1010.1
20190420184016 69 142 3.0 11.0 0.00 0.00 0.00 34 1010.0
20190420183516 67 153 5.0 13.0 0.00 0.00 0.00 38 1010.2
20190420183016 67 173 10.0 13.0 0.00 0.00 0.00 38 1010.2
20190420182516 68 190 7.0 12.0 0.00 0.00 0.00 37 1010.2
20190420182016 68 221 7.0 12.0 0.00 0.00 0.00 35 1010.3
20190420181516 67 205 7.0 12.0 0.00 0.00 0.00 36 1010.4
20190420181016 66 146 3.0 14.0 0.00 0.00 0.00 36 1010.3
20190420180516 66 175 5.0 14.0 0.00 0.00 0.00 37 1010.4
20190420180016 66 147 3.0 12.0 0.00 0.00 0.00 37 1010.5
20190420175516 67 207 4.0 8.0 0.00 0.00 0.00 38 1010.7
20190420175016 66 120 1.0 14.0 0.00 0.00 0.00 36 1010.7
20190420174516 66 175 8.0 14.0 0.00 0.00 0.00 38 1010.8
20190420174016 65 147 1.0 11.0 0.00 0.00 0.00 35 1010.9
20190420173516 65 192 6.0 14.0 0.00 0.00 0.00 38 1011.0
20190420173016 65 238 4.0 14.0 0.00 0.00 0.00 36 1011.1
20190420172516 65 206 7.0 11.0 0.00 0.00 0.00 37 1011.3
20190420172016 64 123 3.0 11.0 0.00 0.00 0.00 38 1011.2
20190420171516 65 184 9.0 11.0 0.00 0.00 0.00 37 1011.5
20190420171016 64 223 6.0 10.0 0.00 0.00 0.00 37 1011.4
20190420170516 64 201 3.0 10.0 0.00 0.00 0.00 39 1011.6
20190420170016 63 158 1.0 10.0 0.00 0.00 0.00 36 1011.7
20190420165516 63 183 4.0 10.0 0.00 0.00 0.00 40 1011.9
20190420165016 63 205 6.0 9.0 0.00 0.00 0.00 41 1011.9
20190420164516 63 184 6.0 10.0 0.00 0.00 0.00 40 1012.1
20190420164016 63 198 8.0 10.0 0.00 0.00 0.00 41 1012.1
20190420163516 63 200 9.0 10.0 0.00 0.00 0.00 41 1012.1
20190420163016 62 236 3.0 10.0 0.00 0.00 0.00 41 1012.1
20190420162516 62 207 7.0 10.0 0.00 0.00 0.00 40 1012.1
20190420162016 63 207 7.0 8.0 0.00 0.00 0.00 41 1012.2
20190420161516 62 188 3.0 8.0 0.00 0.00 0.00 39 1012.2
20190420161016 62 228 3.0 8.0 0.00 0.00 0.00 41 1012.2
20190420160516 62 187 5.0 10.0 0.00 0.00 0.00 41 1012.3
20190420160016 61 237 4.0 10.0 0.00 0.00 0.00 40 1012.3
20190420155516 61 194 7.0 7.0 0.00 0.00 0.00 41 1012.4
20190420155016 61 219 1.0 7.0 0.00 0.00 0.00 42 1012.4
20190420154516 60 183 2.0 7.0 0.00 0.00 0.00 43 1012.5
20190420154016 60 219 7.0 10.0 0.00 0.00 0.00 43 1012.4
20190420153516 60 207 3.0 10.0 0.00 0.00 0.00 43 1012.5
20190420153016 59 179 10.0 10.0 0.00 0.00 0.00 43 1012.4
20190420152516 59 207 2.0 7.0 0.00 0.00 0.00 46 1012.6
20190420152016 58 181 6.0 7.0 0.00 0.00 0.00 48 1012.5
20190420151516 58 200 5.0 7.0 0.00 0.00 0.00 47 1012.6
20190420151016 57 205 4.0 7.0 0.00 0.00 0.00 47 1012.6
20190420150516 56 177 3.0 5.0 0.00 0.00 0.00 47 1012.6
20190420150016 55 175 5.0 5.0 0.00 0.00 0.00 51 1012.7
20190420145516 55 178 0.0 5.0 0.00 0.00 0.00 54 1012.8
20190420145016 54 153 3.0 5.0 0.00 0.00 0.00 55 1012.9
20190420144516 53 194 3.0 5.0 0.00 0.00 0.00 58 1012.8
20190420144016 53 201 3.0 5.0 0.00 0.00 0.00 59 1012.9
20190420143516 52 181 0.0 6.0 0.00 0.00 0.00 60 1012.8
20190420143016 51 193 3.0 6.0 0.00 0.00 0.00 60 1013.0
20190420142516 50 192 5.0 5.0 0.00 0.00 0.00 61 1013.0
20190420142016 50 209 1.0 4.0 0.00 0.00 0.00 62 1013.0
20190420141516 49 148 1.0 3.0 0.00 0.00 0.00 62 1013.0
20190420141016 49 148 1.0 3.0 0.00 0.00 0.00 62 1013.1
20190420140516 48 105 2.0 2.0 0.00 0.00 0.00 62 1013.0
20190420140016 47 105 1.0 2.0 0.00 0.00 0.00 61 1012.9
20190420135516 47 105 1.0 2.0 0.00 0.00 0.00 57 1013.0
20190420135016 46 105 2.0 2.0 0.00 0.00 0.00 52 1013.0
20190420134516 45 105 0.0 2.0 0.00 0.00 0.00 48 1012.9
20190420134016 44 105 0.0 2.0 0.00 0.00 0.00 40 1012.9
20190420133516 43 105 0.0 3.0 0.00 0.00 0.00 32 1012.8
20190420133016 42 105 1.0 3.0 0.00 0.00 0.00 15 1012.9
20190420132516 41 105 1.0 2.0 0.00 0.00 0.00 4 1012.8
20190420132016 40 105 0.0 1.0 0.00 0.00 0.00 100 1012.8
20190420131516 39 105 0.0 2.0 0.00 0.00 0.00 100 1012.7
20190420131016 39 105 0.0 2.0 0.00 0.00 0.00 100 1012.7
20190420130516 38 105 1.0 2.0 0.00 0.00 0.00 100 1012.7
20190420130016 37 105 0.0 1.0 0.00 0.00 0.00 100 1012.5
20190420125516 36 105 0.0 2.0 0.00 0.00 0.00 100 1012.8
20190420125016 36 105 0.0 2.0 0.00 0.00 0.00 100 1012.8
20190420124516 35 105 0.0 0.0 0.00 0.00 0.00 100 1012.7
20190420124016 34 105 0.0 0.0 0.00 0.00 0.00 100 1012.7
20190420123516 33 105 0.0 2.0 0.00 0.00 0.00 100 1012.7
20190420123016 32 105 0.0 2.0 0.00 0.00 0.00 100 1012.7
20190420122516 32 105 1.0 2.0 0.00 0.00 0.00 100 1012.7
20190420122016 32 101 2.0 3.0 0.00 0.00 0.00 100 1012.7
20190420121516 32 101 1.0 3.0 0.00 0.00 0.00 100 1012.7
20190420121016 31 101 2.0 3.0 0.00 0.00 0.00 100 1012.7
20190420120516 31 105 2.0 3.0 0.00 0.00 0.00 1 1012.6
20190420120016 31 105 1.0 4.0 0.00 0.00 0.00 1 1012.6
20190420115516 31 105 0.0 4.0 0.00 0.00 0.00 1 1012.6
20190420115016 31 109 2.0 3.0 0.00 0.00 0.00 3 1012.5
20190420114516 31 109 3.0 5.0 0.00 0.00 0.00 8 1012.5
20190420114016 31 240 2.0 5.0 0.00 0.00 0.00 10 1012.5
20190420113516 31 240 4.0 5.0 0.00 0.00 0.00 11 1012.4
20190420113016 31 245 4.0 5.0 0.00 0.00 0.00 12 1012.3
20190420112515 31 245 4.0 5.0 0.00 0.00 0.00 14 1012.3
20190420112015 31 241 3.0 4.0 0.00 0.00 0.00 14 1012.3
20190420111516 31 242 3.0 4.0 0.00 0.00 0.00 15 1012.2
20190420111016 31 227 2.0 4.0 0.00 0.00 0.00 16 1012.3
20190420110516 31 227 2.0 4.0 0.00 0.00 0.00 17 1012.2
20190420110016 31 227 3.0 4.0 0.00 0.00 0.00 19 1012.1
20190420105516 31 142 2.0 3.0 0.00 0.00 0.00 18 1012.2
20190420105016 31 138 2.0 3.0 0.00 0.00 0.00 20 1012.1
20190420104516 31 138 2.0 3.0 0.00 0.00 0.00 21 1012.1
20190420104016 31 138 2.0 3.0 0.00 0.00 0.00 24 1012.1
20190420103516 32 138 2.0 3.0 0.00 0.00 0.00 25 1012.1
20190420103016 32 138 3.0 3.0 0.00 0.00 0.00 26 1012.1
20190420102516 32 133 3.0 3.0 0.00 0.00 0.00 29 1012.0
20190420102015 32 120 0.0 0.0 0.00 0.00 0.00 27 1012.0
20190420101516 33 120 0.0 3.0 0.00 0.00 0.00 27 1012.0
20190420101016 33 120 0.0 3.0 0.00 0.00 0.00 28 1012.1
20190420100516 33 120 3.0 3.0 0.00 0.00 0.00 28 1012.1
20190420100016 33 120 2.0 3.0 0.00 0.00 0.00 28 1012.1
20190420095515 33 120 2.0 4.0 0.00 0.00 0.00 29 1012.2
20190420095016 33 122 2.0 4.0 0.00 0.00 0.00 29 1012.2
20190420094516 33 121 2.0 3.0 0.00 0.00 0.00 30 1012.3
20190420094016 33 93 2.0 5.0 0.00 0.00 0.00 31 1012.3
20190420093516 33 92 2.0 6.0 0.00 0.00 0.00 31 1012.2
20190420093016 33 86 3.0 7.0 0.00 0.00 0.00 32 1012.2
20190420092516 33 84 3.0 7.0 0.00 0.00 0.00 35 1012.2
20190420091016 34 282 2.0 3.0 0.00 0.00 0.00 40 1012.3
20190420090516 34 282 2.0 3.0 0.00 0.00 0.00 41 1012.3
20190420090016 34 282 3.0 3.0 0.00 0.00 0.00 42 1012.3
20190420085516 34 282 3.0 3.0 0.00 0.00 0.00 43 1012.3
20190420085016 34 282 0.0 0.0 0.00 0.00 0.00 42 1012.4
20190420084516 34 282 0.0 0.0 0.00 0.00 0.00 43 1012.4
20190420084016 34 282 0.0 0.0 0.00 0.00 0.00 44 1012.4
20190420083516 34 282 0.0 0.0 0.00 0.00 0.00 45 1012.5
20190420083016 34 282 0.0 0.0 0.00 0.00 0.00 46 1012.5
20190420082516 35 282 0.0 0.0 0.00 0.00 0.00 46 1012.6
20190420082015 35 282 0.0 0.0 0.00 0.00 0.00 46 1012.6
20190420081516 35 282 0.0 0.0 0.00 0.00 0.00 46 1012.7
20190420081016 35 282 0.0 2.0 0.00 0.00 0.00 47 1012.8
20190420080516 35 282 0.0 3.0 0.00 0.00 0.00 48 1012.8
20190420080016 35 282 2.0 3.0 0.00 0.00 0.00 49 1012.8
20190420075517 35 282 3.0 3.0 0.00 0.00 0.00 50 1012.9
20190420075016 35 282 2.0 3.0 0.00 0.00 0.00 51 1012.8
20190420074516 36 282 2.0 2.0 0.00 0.00 0.00 52 1012.8
20190420074016 36 282 2.0 2.0 0.00 0.00 0.00 53 1012.9
20190420073516 36 282 1.0 2.0 0.00 0.00 0.00 53 1012.9
20190420073016 36 282 1.0 2.0 0.00 0.00 0.00 54 1012.9
20190420072516 36 282 0.0 0.0 0.00 0.00 0.00 55 1012.9
20190420072016 36 282 0.0 0.0 0.00 0.00 0.00 56 1013.0
20190420071516 37 282 0.0 0.0 0.00 0.00 0.00 57 1013.0
20190420071016 37 282 0.0 0.0 0.00 0.00 0.00 58 1013.1
20190420070516 37 282 0.0 0.0 0.00 0.00 0.00 58 1013.1
20190420070016 37 282 0.0 0.0 0.00 0.00 0.00 59 1013.1
20190420065516 37 282 0.0 0.0 0.00 0.00 0.00 60 1013.1
20190420065016 37 282 0.0 0.0 0.00 0.00 0.00 60 1013.2
20190420064516 38 282 0.0 0.0 0.00 0.00 0.00 60 1013.2
20190420064016 38 282 0.0 0.0 0.00 0.00 0.00 61 1013.2
20190420063516 38 282 0.0 2.0 0.00 0.00 0.00 61 1013.3
20190420063021 38 282 0.0 2.0 0.00 0.00 0.00 61 1013.2
20190420062517 38 282 1.0 2.0 0.00 0.00 0.00 61 1013.2
20190420062017 38 282 0.0 0.0 0.00 0.00 0.00 61 1013.1
20190420061516 38 282 0.0 2.0 0.00 0.00 0.00 61 1013.1
20190420061016 38 282 0.0 2.0 0.00 0.00 0.00 62 1013.2
20190420060016 39 282 0.0 1.0 0.00 0.00 0.00 62 1013.3
20190420055516 39 282 0.0 3.0 0.00 0.00 0.00 62 1013.2
20190420055015 39 282 1.0 3.0 0.00 0.00 0.00 62 1013.3
20190420054516 40 282 2.0 3.0 0.00 0.00 0.00 62 1013.4
20190420054016 40 282 3.0 3.0 0.00 0.00 0.00 63 1013.4
20190420053516 40 304 2.0 2.0 0.00 0.00 0.00 63 1013.4
20190420053016 40 304 1.0 2.0 0.00 0.00 0.00 63 1013.4
20190420052516 41 304 0.0 2.0 0.00 0.00 0.00 63 1013.4
20190420052016 41 304 1.0 3.0 0.00 0.00 0.00 63 1013.4
20190420051516 41 304 2.0 3.0 0.00 0.00 0.00 63 1013.3
20190420051016 41 345 0.0 2.0 0.00 0.00 0.00 63 1013.2
20190420050516 41 345 2.0 2.0 0.00 0.00 0.00 63 1013.2
20190420050016 42 360 2.0 2.0 0.00 0.00 0.00 63 1013.3
20190420045516 42 360 0.0 0.0 0.00 0.00 0.00 63 1013.2
20190420045016 42 360 0.0 0.0 0.00 0.00 0.00 63 1013.1
20190420044516 43 360 0.0 0.0 0.00 0.00 0.00 63 1013.1
20190420044016 43 360 0.0 2.0 0.00 0.00 0.00 63 1013.0
20190420043516 43 360 0.0 2.0 0.00 0.00 0.00 63 1013.1
20190420043016 43 360 2.0 2.0 0.00 0.00 0.00 63 1013.1
20190420042516 44 360 0.0 1.0 0.00 0.00 0.00 63 1013.1
20190420042016 44 360 0.0 1.0 0.00 0.00 0.00 63 1013.1
20190420041516 45 360 1.0 2.0 0.00 0.00 0.00 63 1013.1
20190420041016 45 360 0.0 3.0 0.00 0.00 0.00 62 1013.1
20190420040516 45 360 2.0 3.0 0.00 0.00 0.00 62 1013.0
20190420040016 45 335 1.0 4.0 0.00 0.00 0.00 62 1013.0
20190420035516 46 335 3.0 4.0 0.00 0.00 0.00 61 1012.9
20190420035016 46 331 0.0 4.0 0.00 0.00 0.00 62 1012.9
20190420034516 47 344 2.0 4.0 0.00 0.00 0.00 62 1013.1
20190420034015 47 344 1.0 5.0 0.00 0.00 0.00 62 1013.1
20190420033516 47 348 3.0 6.0 0.00 0.00 0.00 61 1013.1
20190420033015 47 339 3.0 6.0 0.00 0.00 0.00 60 1013.1
20190420032516 47 310 3.0 6.0 0.00 0.00 0.00 59 1013.1
20190420032016 47 304 6.0 6.0 0.00 0.00 0.00 59 1013.1
20190420031515 47 314 3.0 6.0 0.00 0.00 0.00 58 1013.1
20190420031016 48 318 4.0 7.0 0.00 0.00 0.00 58 1013.1
20190420030516 48 298 3.0 7.0 0.00 0.00 0.00 57 1013.2
20190420030016 48 326 3.0 6.0 0.00 0.00 0.00 57 1013.2
20190420025516 48 319 4.0 7.0 0.00 0.00 0.00 57 1013.0
20190420025016 49 306 6.0 7.0 0.00 0.00 0.00 56 1013.0
20190420024516 49 323 5.0 8.0 0.00 0.00 0.00 56 1013.0
20190420024016 49 297 6.0 8.0 0.00 0.00 0.00 56 1013.0
20190420023516 49 298 5.0 7.0 0.00 0.00 0.00 55 1013.0
20190420023015 50 331 3.0 7.0 0.00 0.00 0.00 54 1012.9
20190420022517 50 308 3.0 6.0 0.00 0.00 0.00 53 1013.0
20190420022016 50 322 5.0 6.0 0.00 0.00 0.00 53 1013.0
20190420021519 51 321 4.0 6.0 0.00 0.00 0.00 52 1012.9
20190420021016 51 319 4.0 7.0 0.00 0.00 0.00 52 1012.9
20190420020516 51 323 4.0 7.0 0.00 0.00 0.00 51 1013.0
20190420020016 52 320 4.0 5.0 0.00 0.00 0.00 50 1012.9
20190420015516 52 304 3.0 7.0 0.00 0.00 0.00 49 1012.9
20190420015016 52 323 5.0 7.0 0.00 0.00 0.00 48 1012.8
20190420014516 53 343 4.0 7.0 0.00 0.00 0.00 48 1012.8
20190420014016 53 312 4.0 8.0 0.00 0.00 0.00 47 1012.9
20190420013516 54 310 4.0 8.0 0.00 0.00 0.00 47 1012.8
20190420013016 54 317 4.0 7.0 0.00 0.00 0.00 46 1012.8
20190420012516 55 329 4.0 7.0 0.00 0.00 0.00 45 1012.9
20190420012016 55 318 4.0 8.0 0.00 0.00 0.00 44 1012.9
20190420011516 56 329 5.0 8.0 0.00 0.00 0.00 42 1012.9
20190420011016 56 355 5.0 7.0 0.00 0.00 0.00 41 1012.9
20190420010516 57 329 4.0 8.0 0.00 0.00 0.00 40 1012.8
20190420010016 57 323 4.0 8.0 0.00 0.00 0.00 40 1012.8
20190420005516 57 335 4.0 9.0 0.00 0.00 0.00 39 1012.7
20190420005016 57 317 4.0 11.0 0.00 0.00 0.00 38 1012.6
20190420004516 57 317 4.0 14.0 0.00 0.00 0.00 38 1012.6
20190420004016 57 5 5.0 14.0 0.00 0.00 0.00 38 1012.6
20190420003516 58 11 3.0 12.0 0.00 0.00 0.00 39 1012.7
20190420003016 58 355 1.0 12.0 0.00 0.00 0.00 38 1012.7
20190420002516 58 360 3.0 10.0 0.00 0.00 0.00 39 1012.7
20190420002016 58 5 7.0 14.0 0.00 0.00 0.00 38 1012.7
20190420001516 59 319 7.0 14.0 0.00 0.00 0.00 37 1012.7
20190420001016 59 315 6.0 14.0 0.00 0.00 0.00 38 1012.6
20190420000517 59 314 8.0 14.0 0.00 0.00 0.00 38 1012.7
20190420000015 60 346 5.0 13.0 0.00 0.00 0.00 37 1012.8
20190419235516 60 313 8.0 16.0 0.00 0.00 0.00 36 1012.8
20190419235016 60 343 11.0 16.0 0.00 0.00 0.00 35 1012.7
20190419234516 60 64 2.0 9.0 0.00 0.00 0.00 36 1012.8
20190419234016 60 328 7.0 14.0 0.00 0.00 0.00 33 1012.7
20190419233516 60 342 6.0 16.0 0.00 0.00 0.00 33 1012.8
20190419233016 60 324 7.0 16.0 0.00 0.00 0.00 36 1012.8
20190419232516 61 324 7.0 15.0 0.00 0.00 0.00 33 1012.7
20190419232016 61 24 3.0 14.0 0.00 0.00 0.00 33 1012.8
20190419231516 61 346 13.0 19.0 0.00 0.00 0.00 33 1012.8
20190419231015 61 355 6.0 19.0 0.00 0.00 0.00 32 1012.8
20190419230516 61 343 5.0 13.0 0.00 0.00 0.00 32 1012.9
20190419230015 61 23 3.0 14.0 0.00 0.00 0.00 31 1012.9
20190419225516 62 277 2.0 15.0 0.00 0.00 0.00 31 1013.1
20190419225016 62 44 1.0 15.0 0.00 0.00 0.00 32 1013.0
20190419224516 62 350 15.0 15.0 0.00 0.00 0.00 32 1013.1
20190419224016 62 346 10.0 15.0 0.00 0.00 0.00 31 1013.1
20190419223516 62 318 4.0 15.0 0.00 0.00 0.00 31 1013.1
20190419223016 62 298 9.0 15.0 0.00 0.00 0.00 34 1013.1
20190419222516 62 350 5.0 16.0 0.00 0.00 0.00 33 1013.1
20190419222016 62 331 12.0 16.0 0.00 0.00 0.00 31 1013.1
20190419221515 62 5 6.0 19.0 0.00 0.00 0.00 31 1013.1